Retour au catalogue

EXACTVIEW-1

ActifScienceSSO
NORAD 38709·PAYLOAD·🇨🇦 Canada

Lancé Jul 22, 2012 depuis Baikonur Cosmodrome

Loading…

Prochains Passages (prochaines 24 heures)

TLE

FraisSource: Space-Track

Époque: Sep 13, 2026, 22:08 UTC

1 38709U 12039C   26256.92241627  .00000072  00000-0  50547-4 0  9990
2 38709  98.9872  16.3570 0009819 276.4412  83.5649 14.25005616735344

Suivez EXACTVIEW-1 en temps réel avec AllMySat

Download on the App Store